| time (UTC) | temp F | wind direction | speed knots | gust knots | rain 1hr in | rain 24hr in | rain mn in | humidity % | barometer mb |
| 20260510193038 | 76 | 172 | 2.6 | 4.3 | 0.05 | 0.65 | 0.12 | 81 | 1018.5 |
| 20260510191538 | 78 | 353 | 1.7 | 4.3 | 0.01 | 0.61 | 0.08 | 80 | 1019.0 |
| 20260510190055 | 77 | 23 | 3.5 | 7.0 | 0.01 | 0.61 | 0.08 | 83 | 1018.7 |
| 20260510184540 | 77 | 56 | 1.7 | 11.3 | 0.00 | 0.60 | 0.07 | 82 | 1019.0 |
| 20260510183039 | 78 | 7 | 5.2 | 8.7 | 0.07 | 0.60 | 0.07 | 83 | 1019.2 |
| 20260510181534 | 77 | 65 | 5.2 | 10.4 | 0.07 | 0.60 | 0.07 | 84 | 1019.0 |
| 20260510180035 | 76 | 78 | 8.7 | 13.0 | 0.07 | 0.60 | 0.07 | 88 | 1018.6 |
| 20260510174550 | 77 | 84 | 12.2 | 15.6 | 0.07 | 0.60 | 0.07 | 87 | 1018.9 |
| 20260510173038 | 79 | 53 | 6.1 | 12.2 | 0.00 | 0.52 | 0.00 | 84 | 1019.0 |
| 20260510171553 | 79 | 83 | 8.7 | 11.3 | 0.00 | 0.52 | 0.00 | 84 | 1019.0 |
| 20260510170045 | 82 | 86 | 7.0 | 12.2 | 0.00 | 0.52 | 0.00 | 76 | 1019.1 |
| 20260510164542 | 87 | 327 | 0.9 | 5.2 | 0.00 | 0.52 | 0.00 | 67 | 1019.2 |
| 20260510163049 | 85 | 283 | 3.5 | 6.1 | 0.00 | 0.52 | 0.00 | 69 | 1019.4 |
| 20260510161536 | 86 | 311 | 3.5 | 5.2 | 0.00 | 0.52 | 0.00 | 67 | 1019.5 |
| 20260510160043 | 86 | 321 | 2.6 | 6.1 | 0.00 | 0.52 | 0.00 | 70 | 1019.7 |
| 20260510154543 | 83 | 280 | 4.3 | 7.8 | 0.00 | 0.52 | 0.00 | 72 | 1019.7 |
| 20260510153044 | 84 | 316 | 4.3 | 9.6 | 0.00 | 0.52 | 0.00 | 72 | 1019.6 |
| 20260510151541 | 82 | 277 | 6.1 | 9.6 | 0.00 | 0.52 | 0.00 | 74 | 1019.5 |
| 20260510150048 | 82 | 252 | 5.2 | 10.4 | 0.00 | 0.52 | 0.00 | 74 | 1019.5 |
| 20260510144540 | 82 | 288 | 3.5 | 7.8 | 0.00 | 0.52 | 0.00 | 76 | 1019.4 |
| 20260510143042 | 81 | 265 | 3.5 | 7.0 | 0.00 | 0.52 | 0.00 | 77 | 1019.4 |
| 20260510141541 | 81 | 331 | 3.5 | 7.8 | 0.00 | 0.52 | 0.00 | 79 | 1019.2 |
| 20260510140039 | 79 | 254 | 4.3 | 8.7 | 0.00 | 0.52 | 0.00 | 83 | 1018.9 |
| 20260510134536 | 78 | 289 | 5.2 | 7.8 | 0.00 | 0.52 | 0.00 | 88 | 1018.8 |
| 20260510133038 | 77 | 295 | 3.5 | 6.1 | 0.00 | 0.52 | 0.00 | 90 | 1018.8 |
| 20260510131542 | 76 | 292 | 3.5 | 7.8 | 0.00 | 0.52 | 0.00 | 91 | 1018.7 |
| 20260510130042 | 75 | 256 | 5.2 | 7.8 | 0.00 | 0.52 | 0.00 | 92 | 1018.6 |
| 20260510124539 | 75 | 293 | 3.5 | 6.1 | 0.00 | 0.52 | 0.00 | 93 | 1018.6 |
| 20260510123039 | 74 | 274 | 3.5 | 5.2 | 0.00 | 0.52 | 0.00 | 93 | 1018.4 |
| 20260510121538 | 74 | 277 | 1.7 | 4.3 | 0.00 | 0.52 | 0.00 | 93 | 1018.1 |
| 20260510120043 | 73 | 300 | 2.6 | 3.5 | 0.00 | 0.52 | 0.00 | 93 | 1018.0 |
| 20260510114540 | 73 | 313 | 2.6 | 4.3 | 0.00 | 0.52 | 0.00 | 93 | 1017.9 |
| 20260510113042 | 73 | 303 | 2.6 | 3.5 | 0.00 | 0.52 | 0.00 | 93 | 1017.7 |
| 20260510111538 | 72 | 307 | 1.7 | 3.5 | 0.00 | 0.52 | 0.00 | 93 | 1017.6 |
| 20260510110048 | 72 | 321 | 2.6 | 5.2 | 0.00 | 0.52 | 0.00 | 93 | 1017.5 |
| 20260510104536 | 72 | 285 | 2.6 | 4.3 | 0.00 | 0.52 | 0.00 | 93 | 1017.2 |
| 20260510103046 | 72 | 321 | 1.7 | 2.6 | 0.00 | 0.52 | 0.00 | 93 | 1017.0 |
| 20260510101543 | 73 | 305 | 2.6 | 4.3 | 0.00 | 0.52 | 0.00 | 93 | 1016.7 |
| 20260510100047 | 73 | 291 | 2.6 | 4.3 | 0.00 | 0.52 | 0.00 | 93 | 1016.5 |
| 20260510094544 | 73 | 292 | 2.6 | 4.3 | 0.00 | 0.52 | 0.00 | 93 | 1016.5 |
| 20260510093039 | 73 | 276 | 2.6 | 4.3 | 0.00 | 0.52 | 0.00 | 93 | 1016.3 |
| 20260510091541 | 73 | 244 | 2.6 | 5.2 | 0.00 | 0.52 | 0.00 | 93 | 1016.2 |
| 20260510090040 | 73 | 250 | 3.5 | 5.2 | 0.00 | 0.52 | 0.00 | 93 | 1016.1 |
| 20260510084539 | 73 | 238 | 3.5 | 5.2 | 0.00 | 0.52 | 0.00 | 92 | 1016.1 |
| 20260510083037 | 73 | 260 | 2.6 | 4.3 | 0.00 | 0.52 | 0.00 | 93 | 1016.0 |
| 20260510081541 | 73 | 204 | 3.5 | 7.0 | 0.00 | 0.52 | 0.00 | 93 | 1015.7 |
| 20260510080055 | 73 | 224 | 3.5 | 4.3 | 0.00 | 0.52 | 0.00 | 93 | 1015.9 |
| 20260510074549 | 73 | 247 | 3.5 | 4.3 | 0.00 | 0.52 | 0.00 | 92 | 1016.0 |
| 20260510073047 | 73 | 243 | 3.5 | 4.3 | 0.00 | 0.52 | 0.00 | 92 | 1016.1 |
| 20260510071537 | 73 | 236 | 1.7 | 3.5 | 0.00 | 0.52 | 0.00 | 92 | 1016.2 |
| 20260510070045 | 73 | 231 | 2.6 | 4.3 | 0.00 | 0.52 | 0.00 | 92 | 1016.1 |
| 20260510064544 | 73 | 281 | 2.6 | 2.6 | 0.00 | 0.52 | 0.00 | 92 | 1016.5 |
| 20260510063039 | 73 | 285 | 2.6 | 2.6 | 0.00 | 0.52 | 0.00 | 92 | 1016.7 |
| 20260510061537 | 73 | 269 | 2.6 | 3.5 | 0.00 | 0.52 | 0.00 | 91 | 1016.8 |
| 20260510060044 | 73 | 287 | 1.7 | 3.5 | 0.00 | 0.52 | 0.00 | 91 | 1017.0 |
| 20260510054535 | 74 | 197 | 3.5 | 4.3 | 0.00 | 0.52 | 0.00 | 92 | 1017.0 |
| 20260510053046 | 74 | 193 | 2.6 | 5.2 | 0.00 | 0.52 | 0.00 | 91 | 1017.2 |
| 20260510051541 | 73 | 237 | 1.7 | 3.5 | 0.00 | 0.52 | 0.00 | 91 | 1017.5 |
| 20260510050040 | 74 | 300 | 1.7 | 3.5 | 0.00 | 0.52 | 0.00 | 90 | 1017.7 |
| 20260510044536 | 74 | 300 | 0.9 | 2.6 | 0.00 | 0.52 | 0.00 | 89 | 1017.7 |
| 20260510043036 | 75 | 281 | 1.7 | 3.5 | 0.00 | 0.52 | 0.00 | 88 | 1017.9 |
| 20260510041539 | 76 | 219 | 3.5 | 7.8 | 0.00 | 0.52 | 0.00 | 86 | 1017.8 |
| 20260510040045 | 76 | 170 | 4.3 | 8.7 | 0.00 | 0.52 | 0.00 | 86 | 1017.8 |
| 20260510034536 | 76 | 167 | 5.2 | 10.4 | 0.00 | 0.52 | 0.52 | 86 | 1017.8 |
| 20260510033046 | 76 | 172 | 7.8 | 10.4 | 0.00 | 0.52 | 0.52 | 87 | 1017.8 |
| 20260510031538 | 76 | 165 | 7.0 | 9.6 | 0.00 | 0.52 | 0.52 | 87 | 1017.7 |
| 20260510030043 | 76 | 174 | 4.3 | 7.0 | 0.00 | 0.52 | 0.52 | 87 | 1017.6 |
| 20260510024539 | 76 | 191 | 3.5 | 7.8 | 0.00 | 0.52 | 0.52 | 87 | 1017.6 |
| 20260510023037 | 76 | 178 | 3.5 | 6.1 | 0.00 | 0.52 | 0.52 | 88 | 1017.2 |
| 20260510021611 | 76 | 178 | 4.3 | 7.8 | 0.00 | 0.52 | 0.52 | 88 | 1017.4 |
| 20260510020036 | 75 | 127 | 5.2 | 6.1 | 0.00 | 0.52 | 0.52 | 90 | 1017.2 |
| 20260510014552 | 74 | 248 | 1.7 | 2.6 | 0.00 | 0.52 | 0.52 | 90 | 1017.0 |
| 20260510013043 | 74 | 301 | 0.0 | 1.7 | 0.00 | 0.52 | 0.52 | 90 | 1016.9 |
| 20260510011538 | 74 | 301 | 0.9 | 1.7 | 0.00 | 0.52 | 0.52 | 89 | 1016.8 |
| 20260510010049 | 74 | 301 | 0.9 | 1.7 | 0.00 | 0.52 | 0.52 | 89 | 1017.0 |
| 20260510004535 | 74 | 263 | 0.9 | 2.6 | 0.00 | 0.52 | 0.52 | 87 | 1016.7 |
| 20260510003034 | 75 | 20 | 0.9 | 1.7 | 0.00 | 0.52 | 0.52 | 87 | 1016.6 |
| 20260510001539 | 75 | 20 | 0.9 | 1.7 | 0.00 | 0.52 | 0.52 | 86 | 1016.4 |
| 20260510000037 | 75 | 25 | 1.7 | 4.3 | 0.00 | 0.52 | 0.52 | 85 | 1016.2 |
| 20260509234536 | 75 | 40 | 2.6 | 4.3 | 0.00 | 0.52 | 0.52 | 85 | 1015.9 |
| 20260509233035 | 75 | 31 | 2.6 | 5.2 | 0.00 | 0.52 | 0.52 | 85 | 1015.9 |
| 20260509231547 | 75 | 44 | 2.6 | 5.2 | 0.00 | 0.52 | 0.52 | 85 | 1015.9 |
| 20260509230044 | 75 | 23 | 2.6 | 5.2 | 0.00 | 0.52 | 0.52 | 85 | 1015.9 |
| 20260509224536 | 75 | 28 | 3.5 | 5.2 | 0.00 | 2.00 | 0.52 | 87 | 1015.7 |
| 20260509223038 | 75 | 39 | 1.7 | 5.2 | 0.00 | 2.00 | 0.52 | 87 | 1015.5 |
| 20260509221541 | 75 | 14 | 2.6 | 7.0 | 0.01 | 2.00 | 0.52 | 88 | 1015.6 |
| 20260509220048 | 76 | 44 | 3.5 | 5.2 | 0.07 | 2.00 | 0.52 | 89 | 1015.5 |
| 20260509214538 | 76 | 1 | 1.7 | 5.2 | 0.11 | 2.00 | 0.52 | 90 | 1015.5 |
| 20260509213037 | 76 | 56 | 1.7 | 3.5 | 0.14 | 2.00 | 0.52 | 89 | 1015.5 |
| 20260509211539 | 76 | 40 | 0.9 | 1.7 | 0.16 | 1.99 | 0.52 | 89 | 1015.5 |
| 20260509210045 | 75 | 359 | 1.7 | 9.6 | 0.24 | 1.92 | 0.45 | 88 | 1015.7 |
| 20260509204539 | 74 | 9 | 3.5 | 7.0 | 0.41 | 1.89 | 0.42 | 88 | 1015.4 |
| 20260509203037 | 74 | 51 | 0.9 | 5.2 | 0.39 | 1.86 | 0.39 | 88 | 1015.4 |
| 20260509201539 | 75 | 344 | 3.5 | 9.6 | 0.36 | 1.83 | 0.36 | 87 | 1015.8 |
| 20260509200050 | 78 | 307 | 2.6 | 8.7 | 0.20 | 1.67 | 0.20 | 87 | 1015.8 |
| 20260509194552 | 78 | 46 | 5.2 | 7.8 | 0.01 | 1.48 | 0.01 | 86 | 1014.8 |